GFSSW_sfc_rhum_000.txt.gz
RH
82 82 83 83 83 84 84 85 85 85 84 82 83 82 82 83 85 48 16 20 20 77 66 17 21 19 14 12 10 13 26 75 55 52 21 15 11 11 18 50 52 37 41 37 38
83 83 83 83 82 83 84 85 85 84 83 82 82 83 82 83 46 23 38 66 71 67 16 12 18 15 12 10 10 14 47 55 28 22 12 10 11 10 35 58 67 34 31 37 37
83 83 82 82 82 83 84 84 85 86 84 85 82 82 81 72 32 14 65 68 70 49 8 9 12 11 10 9 10 14 43 43 31 12 10 10 9 10 34 42 41 51 37 40 39
83 83 83 83 83 83 83 84 86 86 84 84 82 82 81 48 16 24 62 64 66 13 13 12 10 9 9 10 10 14 12 23 11 11 10 10 9 9 10 31 28 32 37 42 37
83 84 84 84 84 84 84 85 87 88 87 84 81 82 67 32 14 32 64 53 14 11 14 10 9 8 8 8 10 12 12 10 10 11 10 9 9 11 16 24 25 28 40 38 34
84 85 85 84 84 85 86 86 88 88 87 84 82 83 44 21 12 14 10 12 8 14 10 8 7 6 7 8 9 9 11 12 10 11 10 10 14 15 15 14 22 28 31 30 32
85 86 87 86 86 86 86 85 88 90 85 83 82 53 27 15 9 12 9 10 9 12 8 7 6 7 7 10 8 8 10 12 12 10 10 8 22 23 20 15 19 23 26 28 32
86 87 87 87 87 86 86 86 87 88 85 84 84 45 22 10 9 10 10 10 9 8 7 7 7 10 11 9 11 13 12 16 11 10 9 9 23 29 14 17 21 21 24 26 31
86 87 88 88 88 90 90 88 86 89 86 83 63 39 15 24 11 8 10 10 9 7 7 7 12 14 12 13 15 12 15 13 36 37 9 10 21 24 19 24 22 22 24 25 30
88 89 89 90 90 91 90 86 86 84 76 43 32 26 16 12 9 8 8 9 10 8 9 12 12 15 13 13 19 12 14 26 54 36 10 10 11 21 15 14 17 21 24 26 28
86 89 90 91 90 90 57 22 33 39 32 17 14 8 9 10 9 10 8 9 10 10 12 10 13 13 11 11 11 11 12 12 44 23 11 12 11 12 15 18 13 22 27 28 27
85 88 90 91 91 87 59 19 13 11 15 8 7 6 5 9 14 10 8 10 12 14 10 10 12 9 9 8 9 10 12 12 11 10 11 12 12 14 36 57 41 24 23 24 25
86 89 91 92 89 51 16 11 9 9 14 8 6 5 5 6 10 10 9 10 12 14 12 11 7 6 7 7 8 9 11 12 11 9 10 13 14 14 42 42 35 19 20 20 23
88 89 91 97 46 17 11 12 8 10 16 8 6 5 4 5 7 5 8 10 11 14 12 11 8 7 7 7 6 9 8 8 9 11 13 10 17 20 33 34 24 26 17 18 22
87 88 90 92 32 16 12 9 8 12 21 6 6 4 4 6 5 5 8 10 13 12 11 12 9 8 8 7 5 7 7 9 10 11 12 12 12 30 26 32 30 30 27 18 23
86 87 90 32 40 20 10 9 11 18 19 7 7 7 6 6 4 5 8 10 10 12 10 9 6 6 6 5 6 6 7 10 11 9 14 14 12 27 46 35 34 25 17 22 43
85 86 80 32 19 12 11 12 16 19 7 6 7 6 6 6 6 5 7 12 16 18 16 12 9 7 7 7 7 7 11 16 19 16 17 15 12 25 20 25 24 22 21 33 47
84 86 58 28 13 12 14 16 26 12 10 5 4 5 6 5 6 6 8 12 12 12 13 16 15 8 7 8 8 9 12 16 27 20 23 40 29 31 21 19 16 18 21 36 47
85 23 24 22 22 16 18 20 17 14 9 6 5 7 6 5 5 6 9 10 11 11 18 13 12 7 7 7 7 9 12 10 15 13 18 39 24 19 17 20 23 22 21 33 43
43 25 17 13 14 17 20 25 11 7 7 6 8 6 7 5 6 7 9 9 9 8 10 13 16 8 7 7 8 8 8 14 12 25 27 20 22 29 39 43 28 26 24 34 45
41 26 12 11 14 17 20 14 10 7 7 7 8 8 6 6 6 7 7 8 7 7 8 9 14 12 8 10 10 9 9 11 11 14 18 22 41 40 50 43 45 29 27 31 44
28 24 14 13 19 16 17 13 18 7 6 7 8 8 8 7 8 9 8 7 6 6 9 9 11 16 12 8 8 8 10 12 17 28 17 19 45 28 56 58 47 36 32 34 41
34 19 15 15 22 15 13 10 9 8 8 8 8 7 8 9 13 10 10 6 6 7 11 10 14 17 17 11 9 10 9 10 16 24 28 22 21 27 49 58 34 31 34 40 51
36 21 16 18 17 17 16 14 12 8 7 8 8 7 8 10 10 13 11 7 8 8 50 26 20 21 15 17 18 14 11 9 13 20 18 14 40 37 48 54 70 43 37 48 56
34 25 21 20 16 18 17 18 17 12 10 10 11 8 9 14 12 12 11 12 7 31 16 17 33 19 13 12 13 14 12 10 10 13 15 18 24 48 63 59 52 67 51 54 61
37 35 30 30 31 31 30 18 19 16 12 12 12 9 10 16 14 15 12 15 15 12 17 18 31 24 20 13 12 14 12 10 8 9 10 10 55 51 56 52 52 61 58 57 56
35 33 34 41 29 26 24 22 16 16 15 10 12 11 12 12 10 10 9 16 16 18 22 27 27 34 29 16 15 19 14 14 11 10 10 27 50 56 54 58 65 65 54 52 56

GFSSW_sfc_rhum_003.txt.gz
RH
83 84 84 85 86 86 86 86 86 87 83 85 84 84 84 87 88 67 30 20 24 79 75 19 20 22 23 20 15 14 49 64 51 42 33 22 26 30 22 35 32 42 49 48 50
84 84 84 84 84 87 88 88 88 87 87 84 86 83 83 86 61 32 32 63 69 71 14 21 21 23 25 18 16 22 54 43 30 27 26 23 21 26 29 36 42 40 52 48 50
84 85 85 83 83 84 87 88 87 88 86 84 85 83 84 82 52 20 62 69 73 59 10 12 12 15 18 13 13 18 42 29 23 24 23 27 20 26 32 39 44 46 57 50 50
84 85 83 83 84 84 85 86 86 89 86 85 83 81 85 70 29 26 65 73 73 22 10 12 14 18 15 13 10 14 16 22 24 25 22 15 15 33 22 30 30 35 52 48 49
84 85 85 86 86 86 86 86 86 90 86 85 84 83 83 56 28 41 63 59 27 17 12 19 16 14 12 10 9 12 14 14 18 17 14 13 16 21 26 23 26 29 45 49 49
85 87 87 87 86 86 86 86 86 89 86 85 84 86 71 40 19 32 21 18 10 12 16 16 11 10 10 10 12 13 11 12 17 14 13 16 18 16 27 26 26 31 48 51 46
86 87 87 87 86 86 86 86 86 88 87 85 84 65 44 29 13 17 12 13 9 12 16 11 9 11 11 15 10 12 16 12 16 18 16 17 25 21 21 32 36 40 46 51 47
86 87 87 87 87 86 87 88 87 86 87 86 87 70 46 16 16 12 12 13 10 15 15 10 9 12 15 15 16 15 18 26 22 22 21 22 23 26 25 24 28 40 41 44 48
86 86 87 88 89 90 91 88 87 86 88 85 87 74 34 24 14 13 13 14 13 12 12 8 13 20 20 23 24 21 31 36 33 18 21 26 27 27 25 28 33 48 36 42 46
88 89 90 90 91 91 90 86 82 92 87 60 47 46 30 17 12 11 12 12 12 12 11 17 19 26 25 27 31 25 33 39 39 27 20 22 28 27 31 37 54 71 79 63 43
88 89 90 91 91 90 79 54 52 61 61 40 30 16 10 12 10 12 9 12 12 14 18 18 25 27 22 17 15 14 15 29 32 23 23 28 27 27 28 34 42 79 76 81 43
86 89 90 92 90 86 89 36 20 18 22 13 11 11 10 11 14 12 10 15 17 20 16 18 20 15 12 11 12 12 13 16 16 24 27 24 21 37 36 40 30 60 70 74 57
87 89 90 91 86 71 28 21 14 15 25 14 10 9 9 8 14 15 12 12 16 19 18 19 13 9 10 10 9 10 13 13 15 12 17 20 27 47 43 39 29 46 49 55 57
88 89 90 97 56 30 24 16 13 14 35 16 11 8 7 7 9 9 10 11 14 16 17 17 12 11 11 9 9 11 8 7 10 15 21 18 29 52 52 40 37 41 49 54 54
87 88 90 90 57 35 21 15 13 21 41 10 8 6 6 7 8 7 9 11 14 14 17 20 15 14 13 10 8 10 7 8 15 19 22 19 26 51 49 46 40 42 54 47 44
85 87 87 54 64 40 24 18 21 35 37 10 7 7 8 8 7 7 11 11 12 14 14 15 10 10 9 8 7 8 10 15 19 20 28 21 27 52 49 41 44 39 45 39 46
83 84 87 46 36 22 20 25 35 37 13 8 10 8 10 9 8 7 14 19 24 29 27 18 13 11 9 13 11 11 31 32 37 36 34 42 38 46 35 34 36 37 40 52 64
82 85 73 48 27 23 30 36 45 18 14 8 8 8 10 9 9 7 10 20 18 19 25 26 25 15 9 12 14 17 19 32 38 43 36 40 44 68 55 29 34 48 58 56 64
84 44 44 38 39 35 41 44 31 21 12 9 9 11 10 7 8 8 9 10 10 16 24 28 23 12 9 9 10 14 27 17 25 28 29 48 44 37 43 32 31 58 58 57 52
77 48 31 23 26 34 45 42 22 11 9 10 14 13 14 10 8 9 13 9 10 10 14 19 27 16 10 9 11 12 14 22 29 38 39 46 57 66 57 41 40 46 58 55 58
69 48 28 18 23 36 37 27 16 11 9 13 13 13 13 13 11 9 11 9 9 9 12 14 25 18 17 20 18 20 20 22 25 29 31 51 53 58 54 65 57 50 53 64 63
48 45 18 17 37 34 29 21 27 12 11 11 12 13 14 13 13 13 12 10 7 8 12 14 28 30 20 12 11 12 17 20 33 32 42 43 49 40 55 49 60 66 66 72 70
59 42 21 19 38 29 23 15 14 13 12 11 12 12 12 14 24 20 15 10 8 11 20 36 25 31 25 22 17 15 14 20 31 39 35 46 58 52 67 67 55 47 68 83 70
55 50 33 30 29 32 31 25 18 11 11 10 11 13 16 16 18 23 14 10 9 20 52 31 36 26 25 31 26 25 18 14 25 37 30 29 55 63 64 59 72 61 63 78 69
53 50 46 44 36 39 36 25 22 22 17 11 19 16 17 24 20 20 15 12 9 33 19 27 39 43 30 22 14 17 17 16 22 21 31 27 43 50 70 71 74 85 93 88 75
55 56 46 46 45 40 44 42 29 18 21 21 21 14 15 26 27 25 18 27 30 22 24 26 44 44 39 24 21 19 17 20 15 14 16 32 60 58 56 61 78 75 79 88 84
52 53 53 50 40 35 35 30 24 23 16 17 18 16 16 14 25 26 21 23 32 55 39 42 40 53 48 33 29 33 29 26 29 28 26 37 47 60 55 59 82 76 71 72 74

GFSSW_sfc_rhum_006.txt.gz
RH
84 85 86 85 85 85 86 86 86 88 86 87 86 86 83 88 88 77 34 22 26 76 69 23 30 22 28 32 19 21 55 68 56 49 38 35 39 36 30 40 41 43 49 50 53
85 85 85 84 84 85 86 87 87 88 87 88 84 85 84 89 72 44 40 60 66 82 16 24 27 29 36 25 21 27 52 49 36 33 32 25 30 31 31 42 48 54 59 51 58
85 84 85 84 85 86 87 87 86 87 87 87 84 85 87 86 59 30 66 70 76 58 12 19 18 21 27 22 17 24 34 32 24 25 24 26 24 27 31 40 42 64 65 56 63
85 85 86 85 85 85 85 85 86 87 86 85 84 86 87 80 34 29 73 75 75 24 14 13 17 24 20 16 14 16 18 19 19 21 30 30 26 30 29 28 30 60 59 59 64
86 87 86 86 86 86 86 86 86 87 88 84 84 87 88 56 31 42 65 67 29 17 12 15 26 23 18 13 12 13 12 13 17 23 22 22 28 30 30 31 35 54 56 61 68
86 87 86 86 85 85 86 87 88 87 88 86 87 87 73 38 28 43 29 26 15 15 16 19 20 15 14 14 16 12 13 15 22 22 22 18 26 26 33 33 47 54 58 54 64
86 86 86 86 85 85 86 87 86 86 87 87 86 70 56 19 21 32 17 15 12 14 18 18 17 14 17 17 18 18 20 17 24 26 24 20 25 21 36 31 50 52 60 60 58
85 86 86 86 86 86 87 88 85 85 85 86 86 82 30 21 21 14 15 17 13 12 17 19 17 14 18 19 21 23 28 33 21 24 23 22 31 31 40 40 60 56 54 65 85
86 86 88 88 89 89 90 88 85 84 85 84 92 78 39 27 18 15 14 16 15 12 18 11 15 20 24 30 32 27 29 35 24 23 24 22 32 30 36 53 60 57 55 59 73
88 88 89 89 89 89 88 86 87 92 86 69 56 43 26 23 15 15 15 14 16 15 14 19 22 28 31 34 35 29 41 36 34 25 26 30 25 25 38 54 61 53 72 71 75
88 88 89 88 87 87 91 60 34 33 70 48 30 28 18 16 12 15 14 16 17 16 21 21 26 29 26 26 23 22 22 28 29 26 32 30 33 34 58 63 67 66 68 62 58
87 88 88 88 87 83 94 38 24 18 24 19 20 18 17 14 15 14 11 17 19 23 24 21 25 19 19 18 18 18 17 21 22 25 31 30 31 43 53 66 61 57 59 60 67
87 87 88 88 85 68 40 28 22 24 30 21 15 14 12 12 13 17 13 17 20 22 22 23 16 14 15 15 15 13 14 13 13 17 32 29 32 42 43 52 47 52 61 66 66
86 86 88 91 52 50 32 24 24 21 37 23 19 12 10 10 12 16 11 15 17 20 21 22 16 16 16 15 13 16 10 11 10 19 21 23 28 49 49 46 58 54 61 64 70
84 84 86 86 76 48 29 25 28 25 19 14 12 9 10 10 10 11 12 15 18 17 20 23 20 20 19 16 12 12 10 10 14 23 26 22 26 31 51 42 40 53 59 64 60
83 84 84 70 82 58 38 26 23 30 24 16 8 10 10 10 9 10 15 14 14 18 17 18 14 17 16 12 11 11 15 20 27 27 28 24 24 33 57 42 44 45 46 38 62
82 83 87 60 34 37 33 29 30 42 17 14 12 10 11 11 10 10 19 20 23 29 30 22 18 16 14 14 13 13 22 30 31 33 32 31 42 40 49 41 39 41 43 42 44
82 88 86 71 65 41 38 31 43 22 20 12 11 12 13 12 10 11 21 24 23 27 32 33 32 18 15 14 14 16 19 30 35 38 38 36 49 49 52 44 42 37 49 73 86
86 77 75 67 61 46 40 44 32 29 16 13 13 17 14 12 12 12 18 20 18 23 28 31 28 17 16 13 12 17 21 18 25 38 34 38 52 43 44 41 67 67 68 74 78
98 83 58 40 44 44 45 49 29 18 14 14 22 17 17 14 13 14 14 13 16 18 19 22 27 14 13 14 13 12 13 19 30 35 34 40 63 56 56 62 65 71 71 70 74
89 64 44 37 33 40 43 41 22 14 14 17 19 18 18 20 18 18 13 11 9 10 17 21 25 17 20 21 19 18 21 23 24 32 32 48 56 55 51 65 65 73 73 80 84
93 59 33 28 43 49 39 27 30 17 16 16 16 16 14 17 19 16 16 16 11 8 18 18 27 28 21 18 15 16 17 21 28 24 46 50 58 57 59 71 73 78 81 84 82
92 72 40 30 44 45 35 22 18 16 17 16 16 18 13 20 18 20 17 12 11 21 16 20 30 33 23 20 19 20 16 22 31 39 36 38 52 58 65 67 70 79 78 90 88
89 74 54 46 46 47 47 38 31 20 19 14 14 16 18 20 20 16 15 11 10 12 55 38 35 24 24 22 30 26 21 22 28 38 30 33 64 72 71 55 77 75 79 88 86
85 77 64 74 58 58 63 47 36 30 21 24 23 16 19 26 22 18 14 15 14 34 20 28 29 38 31 30 30 31 25 28 33 25 25 27 54 54 68 71 77 81 86 82 69
86 89 80 74 59 47 57 52 41 33 32 26 28 19 16 22 21 21 21 27 25 31 35 35 27 61 39 30 29 31 26 33 22 21 24 48 65 68 73 76 77 79 77 78 80
82 80 85 76 50 48 46 52 43 48 45 40 36 25 23 18 17 28 29 27 28 53 42 56 38 50 52 41 37 39 31 29 31 29 28 43 49 68 80 80 80 81 68 56 74

GFSSW_sfc_rhum_009.txt.gz
RH
85 85 85 85 86 86 87 87 87 87 84 85 85 85 87 88 90 86 34 22 25 80 68 43 50 26 31 35 26 33 45 62 59 50 44 48 48 40 34 43 45 42 54 54 62
85 86 86 86 86 86 87 87 87 86 86 84 85 84 87 89 78 50 43 62 71 84 21 25 32 34 39 34 24 27 47 44 41 40 40 40 39 38 38 48 53 61 61 54 70
86 86 86 85 84 85 86 86 86 86 88 86 83 86 88 89 66 32 61 72 74 72 14 24 23 30 37 26 22 32 30 33 26 32 30 38 37 38 39 49 46 71 67 60 71
86 86 85 85 85 84 85 85 86 87 87 87 86 86 89 88 40 32 70 74 78 35 14 14 20 25 27 21 14 19 21 20 18 15 29 29 28 32 32 30 34 62 60 65 69
85 86 86 85 85 85 84 84 85 87 87 88 89 88 89 51 26 54 73 73 34 18 12 16 26 26 23 16 14 15 15 16 15 22 28 29 31 29 32 41 56 58 60 69 70
85 86 86 85 84 85 86 86 88 87 87 88 88 88 75 27 34 44 35 21 17 16 15 19 23 19 20 18 19 15 16 19 18 22 27 28 30 29 42 59 63 62 66 66 68
85 85 85 84 84 84 86 86 85 85 86 85 87 74 57 12 30 31 22 20 15 17 19 20 20 20 19 17 19 21 22 20 21 25 23 24 34 29 42 60 65 65 64 78 80
85 85 85 85 85 84 86 87 85 86 86 85 86 85 37 21 33 19 18 16 15 14 18 21 23 23 20 21 23 25 33 35 22 27 26 24 37 49 48 63 68 68 68 69 76
85 86 87 87 87 87 87 86 86 84 84 84 89 79 34 34 19 17 15 16 15 14 14 14 20 23 27 32 34 31 29 35 29 26 28 27 37 48 54 63 67 66 67 63 68
87 88 88 87 86 87 86 84 88 91 85 73 60 40 18 26 19 15 14 17 19 20 17 20 26 30 33 38 25 32 37 30 32 31 29 29 40 54 59 56 62 59 64 58 58
86 87 87 87 86 85 91 62 31 30 70 32 23 23 20 18 16 17 16 18 21 17 21 23 25 29 28 29 29 28 28 26 23 22 29 33 38 41 54 59 57 59 74 63 69
84 86 86 86 85 86 86 36 34 25 26 20 24 26 21 20 16 17 15 20 23 24 23 23 26 23 21 22 24 24 26 21 18 20 30 34 52 64 68 67 62 52 66 72 73
84 85 86 87 86 60 39 33 29 41 33 22 19 17 14 15 16 16 15 18 23 24 24 24 18 17 18 19 19 20 18 14 14 16 33 35 48 58 53 66 58 52 55 64 64
85 85 87 90 45 56 35 34 29 30 32 19 22 15 12 13 16 14 14 17 23 23 24 25 20 19 24 20 17 21 14 13 12 19 19 27 30 52 51 63 56 51 62 63 68
84 85 86 86 77 45 30 40 29 23 18 12 16 11 14 13 14 21 14 16 20 19 23 23 25 24 23 20 15 18 15 13 18 25 28 26 25 28 57 51 61 58 59 62 62
83 84 84 70 82 54 45 35 24 20 19 14 12 13 13 13 11 17 17 15 17 20 21 20 18 20 19 16 16 15 16 21 31 29 27 26 26 34 61 48 49 50 53 56 58
83 85 89 67 27 43 41 26 26 31 14 16 14 13 15 13 12 16 22 22 24 28 30 23 20 18 16 23 19 16 22 28 29 30 26 40 42 40 42 45 42 42 48 52 67
84 88 88 77 72 48 34 28 33 16 24 15 13 14 13 13 14 15 24 27 24 28 36 34 30 23 20 20 20 18 18 28 31 36 30 37 42 47 49 47 49 40 48 58 68
87 85 84 74 70 51 33 33 22 27 19 16 15 17 16 13 14 13 23 23 21 26 28 37 31 20 18 16 15 24 23 20 29 41 33 38 44 46 48 68 72 62 79 90 90
99 90 73 56 54 44 39 44 33 24 16 17 22 18 20 15 16 17 19 17 20 21 24 29 29 18 15 17 19 17 17 22 30 36 45 35 61 57 55 75 80 80 85 88 80
83 58 43 56 38 39 44 45 31 18 17 20 25 21 20 18 19 20 15 13 17 16 22 27 26 17 19 24 21 19 23 28 28 32 33 40 51 55 56 63 87 83 82 82 71
90 51 42 39 35 54 40 31 35 22 18 18 21 18 20 17 18 18 16 17 14 16 27 26 30 30 21 19 18 18 18 24 30 26 47 49 43 58 54 60 73 85 81 84 78
84 84 50 34 45 48 39 27 24 21 23 22 20 19 19 20 18 17 19 14 12 16 20 23 30 26 20 23 22 24 23 28 34 32 45 40 34 72 72 82 87 95 86 82 84
84 68 59 55 61 58 59 46 36 25 24 19 18 20 21 22 19 19 19 11 12 13 61 34 33 22 19 25 28 32 31 24 28 35 35 34 30 77 71 74 90 84 92 89 84
88 85 80 75 61 68 71 53 44 37 29 29 30 27 30 27 26 21 21 18 16 33 33 28 34 33 31 23 29 30 30 31 29 28 28 29 36 46 65 77 84 80 85 88 89
91 90 86 82 71 52 59 63 50 52 47 39 50 45 40 27 22 19 25 31 24 28 40 50 27 62 41 33 35 33 29 33 32 31 34 39 43 60 74 79 79 78 77 84 82
94 88 88 74 67 60 58 60 51 57 52 49 47 53 36 38 42 23 21 29 29 57 45 61 44 44 46 48 38 33 33 33 38 37 32 40 42 77 73 72 74 77 80 83 83

GFSSW_sfc_rhum_012.txt.gz
RH
84 86 86 85 85 86 87 87 87 86 86 85 82 84 85 89 89 83 23 21 32 69 65 51 43 31 34 36 31 38 41 67 59 53 41 52 51 42 38 46 48 44 66 63 76
85 85 84 84 84 85 86 87 87 87 87 88 85 83 88 90 79 56 42 54 61 81 23 37 33 36 40 36 26 30 41 43 42 44 40 43 45 41 43 53 57 59 63 70 85
85 84 85 83 83 84 84 85 85 86 87 88 89 86 90 92 65 32 59 59 71 74 16 28 24 34 33 29 24 36 29 34 33 37 35 45 44 39 43 48 52 63 74 77 87
84 84 84 83 83 82 82 83 83 85 87 88 88 88 90 93 43 36 67 75 71 55 16 19 20 26 29 23 17 21 20 22 18 30 36 38 40 43 42 36 38 58 67 75 86
84 84 84 83 83 82 82 82 84 85 87 88 88 89 93 47 25 58 72 79 48 23 14 19 27 30 24 18 16 19 15 16 17 20 27 30 33 39 37 42 48 62 64 74 81
84 84 84 83 83 84 84 86 86 85 86 88 88 87 78 18 39 57 46 24 21 16 15 24 26 23 21 21 20 18 18 20 20 21 29 34 34 33 51 62 64 66 71 70 76
84 84 84 83 83 83 84 84 84 85 86 86 87 78 48 9 35 34 21 20 18 16 18 21 25 22 20 18 20 25 25 24 24 26 27 28 35 35 59 65 69 69 71 74 77
84 83 84 84 84 83 84 85 85 89 86 84 86 85 25 26 39 25 22 16 17 18 19 22 25 27 22 21 24 27 32 34 23 26 27 25 34 42 69 71 76 75 75 79 81
83 83 84 86 86 86 85 87 85 84 84 84 92 77 20 36 22 20 16 15 15 15 16 12 21 28 28 32 29 31 34 35 28 28 30 30 31 52 64 75 82 81 81 76 78
84 86 87 87 86 86 87 82 88 89 85 75 63 31 19 28 22 17 15 16 19 19 20 22 28 32 37 36 18 31 38 34 33 24 32 30 31 64 64 70 78 77 78 76 73
85 86 87 87 86 84 88 54 33 34 52 28 26 19 20 19 19 19 17 19 19 17 22 24 26 30 28 34 32 33 33 32 26 21 36 35 43 56 67 65 71 73 76 71 67
82 86 87 88 86 88 78 35 35 35 36 21 24 29 25 20 18 20 18 22 26 26 24 24 27 21 22 24 27 30 32 26 19 18 35 44 44 61 71 70 65 66 65 66 79
83 86 88 88 87 57 49 36 36 36 36 22 21 23 18 16 16 18 18 21 25 27 24 25 21 21 20 23 24 26 25 22 16 16 34 42 45 59 58 70 61 59 57 62 70
85 86 88 91 41 57 37 39 36 34 24 15 20 15 15 15 17 16 17 18 25 26 26 26 22 21 26 25 21 32 19 17 15 20 16 29 29 32 60 59 64 60 60 66 74
85 85 87 86 67 34 36 36 33 20 19 13 18 13 17 15 15 20 16 19 22 23 25 20 28 26 28 22 18 21 18 17 20 27 31 27 25 27 57 51 51 58 57 68 68
84 84 84 77 79 50 43 36 21 12 16 15 15 15 16 15 14 21 18 17 20 21 26 21 21 22 20 19 18 19 19 22 32 30 27 29 29 34 46 49 47 55 53 61 63
84 87 90 71 24 46 46 24 16 18 14 18 17 15 17 16 16 24 22 23 27 30 34 25 22 19 17 22 24 18 24 29 29 29 27 41 43 35 41 44 47 46 52 59 69
86 88 86 81 72 53 31 23 20 12 21 18 16 17 18 14 15 21 27 30 28 27 36 32 28 26 22 20 22 22 23 30 29 33 29 41 41 36 47 51 54 51 55 75 82
88 90 86 76 79 54 28 25 13 21 22 18 18 17 17 15 14 17 26 29 26 26 28 39 33 23 20 17 18 27 24 22 33 41 33 35 39 40 53 78 57 66 65 78 84
98 92 70 66 64 42 32 37 28 27 20 20 25 21 21 17 17 18 22 19 20 24 25 28 31 23 18 19 22 21 20 25 32 33 34 36 54 50 52 78 86 89 87 87 84
86 53 47 65 47 41 40 44 34 24 16 20 27 25 23 21 19 20 18 16 20 21 24 29 28 24 19 24 23 22 24 29 30 33 34 39 40 53 50 71 84 82 89 86 85
78 56 51 38 41 62 47 38 35 24 18 20 26 26 25 20 20 22 17 16 16 19 28 30 34 37 23 20 23 21 23 26 31 32 49 42 36 61 61 65 86 88 88 86 78
80 81 54 41 40 46 40 31 28 25 26 26 25 24 23 25 24 21 21 16 13 16 21 27 36 38 28 20 26 26 25 30 34 40 54 43 34 59 72 72 82 89 87 89 90
83 65 58 59 63 61 62 52 43 31 28 25 24 24 27 27 24 21 19 15 15 17 68 33 35 34 26 22 29 35 30 29 29 36 38 34 30 47 65 75 92 95 92 91 93
89 88 84 71 66 67 61 54 51 56 45 35 36 40 53 48 28 22 23 18 17 40 40 32 36 37 29 24 29 34 33 27 32 34 38 38 31 34 60 73 85 93 95 95 92
93 88 85 82 76 56 72 77 58 54 60 48 58 51 61 35 34 35 23 28 27 29 50 55 33 61 43 38 33 34 33 34 34 32 35 38 38 50 64 78 83 86 94 94 91
97 92 89 70 75 61 67 65 58 61 53 50 54 62 58 40 54 51 39 28 30 48 43 63 47 44 45 48 39 32 33 34 37 38 36 46 39 76 80 77 80 82 90 85 88

GFSSW_sfc_rhum_015.txt.gz
RH
84 84 84 83 84 84 85 86 86 86 86 86 88 84 84 90 88 58 14 17 24 59 58 33 20 20 24 23 20 25 27 39 34 30 20 29 28 32 29 34 36 40 44 46 60
83 83 84 83 82 83 84 85 85 85 86 87 88 89 85 90 61 32 33 51 57 71 23 19 20 26 22 20 17 16 23 29 26 27 19 23 30 30 31 35 40 40 50 55 65
84 83 82 82 81 82 84 85 86 85 86 88 88 90 89 83 44 23 63 59 62 66 12 22 18 20 19 17 16 19 19 22 17 23 23 18 26 27 29 34 33 38 53 64 68
84 83 82 82 82 81 82 81 84 84 86 87 88 90 89 72 24 27 64 69 79 33 10 16 14 17 16 14 11 14 13 17 11 14 22 21 24 29 31 23 26 31 48 62 67
83 83 83 82 82 82 82 82 84 85 86 86 87 89 75 21 12 46 72 68 38 18 10 16 16 18 14 12 12 11 11 12 11 14 15 17 23 25 30 25 27 36 51 59 60
83 83 83 82 82 83 84 85 86 85 85 86 87 88 54 11 28 44 36 22 18 11 10 16 18 16 14 12 13 13 15 15 14 16 20 22 24 25 29 31 36 48 53 52 55
82 82 82 81 81 81 84 84 84 86 88 85 85 73 34 8 27 28 16 14 14 9 11 14 16 14 14 13 15 17 15 15 16 18 18 21 23 27 34 44 45 48 55 55 58
82 81 81 82 82 82 83 84 86 87 87 84 85 68 16 23 26 21 13 13 12 12 13 15 16 16 14 15 14 16 16 15 15 18 19 19 18 26 48 46 48 52 57 58 62
82 82 83 84 85 86 86 88 84 84 84 84 71 53 10 35 23 18 12 9 10 9 9 10 14 18 18 16 12 17 13 18 18 18 15 20 18 40 51 52 52 56 59 58 64
82 84 87 87 87 86 88 83 89 84 76 68 56 28 16 20 17 14 12 11 12 10 13 14 17 18 21 14 8 12 17 20 21 15 14 17 19 28 50 52 53 56 64 60 61
82 85 87 88 88 87 71 42 23 20 26 18 17 12 13 15 15 13 11 14 13 14 16 18 14 14 15 21 19 21 19 20 17 15 18 21 24 33 46 52 54 60 66 64 62
81 85 88 89 87 88 59 22 25 25 22 19 18 19 19 16 14 16 13 17 18 18 16 16 15 14 16 21 20 19 18 16 14 12 20 22 23 31 44 47 49 52 61 58 63
82 86 88 88 88 46 35 27 26 26 23 16 16 17 13 14 12 16 14 18 20 20 18 18 14 17 16 17 18 17 17 17 14 12 20 27 21 29 37 47 45 47 47 52 56
84 85 88 91 40 41 28 31 25 25 18 11 13 12 13 12 11 13 14 15 19 20 21 19 16 16 18 18 16 18 15 14 14 14 12 19 13 24 28 33 39 43 45 45 50
84 84 87 86 47 23 27 27 23 20 17 10 13 10 12 12 12 16 14 14 19 20 20 15 18 20 20 17 16 18 14 15 14 14 18 17 14 16 30 25 29 37 44 44 50
85 84 85 63 54 32 30 26 18 13 16 12 11 11 12 11 13 16 16 13 15 18 18 16 15 15 14 15 14 14 15 17 20 16 16 20 16 16 18 26 31 34 39 42 46
85 87 84 59 19 36 32 18 13 13 11 14 12 11 11 11 12 17 18 19 18 26 25 19 16 14 14 15 16 15 18 20 17 17 16 28 24 21 22 28 34 33 37 39 43
86 87 76 62 50 42 22 16 23 10 12 13 12 12 11 10 11 19 20 21 19 19 21 17 13 17 16 14 15 17 18 18 24 18 16 28 22 19 30 33 38 37 34 34 38
87 56 50 43 54 46 22 17 13 13 18 15 13 13 13 11 11 14 19 18 18 19 20 22 19 17 16 14 13 18 19 15 24 28 19 18 20 23 38 40 40 36 36 38 46
79 54 42 49 50 28 23 32 16 17 16 15 16 15 15 13 12 13 18 14 15 18 17 20 18 14 13 13 15 16 16 18 19 30 26 21 28 21 33 36 39 40 37 46 65
54 37 41 44 34 27 22 24 24 19 13 14 17 16 15 15 12 13 14 12 14 17 18 18 20 14 14 15 15 16 16 20 18 21 19 21 18 30 34 36 42 43 44 50 60
47 38 38 33 30 38 28 28 36 16 13 13 16 17 16 16 14 13 12 13 10 15 18 20 22 22 15 15 15 15 18 22 18 32 28 23 17 22 38 37 48 46 53 62 66
54 49 39 33 25 33 29 22 20 19 19 17 17 16 16 18 20 15 13 11 10 14 21 23 26 21 19 15 18 18 18 20 29 30 38 23 18 26 42 45 55 52 56 67 66
55 41 40 42 43 41 43 34 24 28 24 22 20 21 23 22 20 20 14 11 11 15 63 32 32 29 14 15 17 23 19 19 21 23 27 19 20 21 27 44 58 62 64 68 67
58 62 62 37 42 42 44 44 40 39 36 34 27 39 40 31 22 20 16 15 12 43 28 26 33 28 20 17 14 16 21 19 23 25 20 24 24 24 28 40 50 58 73 72 70
57 56 51 50 53 40 55 52 45 42 40 37 40 42 45 36 24 28 36 26 20 21 31 40 32 36 28 27 17 16 15 22 21 22 23 24 27 24 45 53 59 68 75 76 75
66 66 60 57 50 40 46 50 46 47 39 40 43 46 44 38 40 41 42 40 37 39 33 42 39 36 25 31 27 30 22 24 23 24 22 27 26 39 44 53 61 71 72 72 70

GFSSW_sfc_rhum_021.txt.gz
RH
81 82 82 82 83 83 83 83 83 82 82 83 85 86 88 89 87 34 10 18 18 56 52 8 7 5 6 12 11 11 15 16 13 12 11 9 11 12 14 18 20 20 21 22 30
82 82 82 82 82 85 86 86 85 86 84 84 85 86 87 89 35 14 36 50 50 55 13 7 5 5 9 12 11 11 18 12 9 9 10 10 10 11 14 17 24 24 25 28 31
81 81 81 80 79 83 85 85 85 85 86 85 85 86 88 72 25 14 54 50 51 43 9 6 6 7 10 11 10 10 11 9 8 8 7 9 10 10 12 15 17 25 30 31 33
81 81 80 80 80 80 82 83 84 86 86 85 85 85 88 34 17 18 60 56 62 20 7 8 7 7 9 13 10 11 9 9 7 7 7 8 8 10 11 13 15 18 26 31 33
81 82 81 81 81 81 81 83 86 86 85 86 85 84 46 16 14 23 64 48 15 6 7 7 6 6 9 10 10 11 9 9 8 8 9 8 9 10 10 11 16 18 25 30 30
81 82 81 82 82 85 85 85 86 87 87 87 84 88 25 10 12 14 10 11 7 6 7 7 7 7 8 9 10 10 10 10 8 9 8 9 9 10 13 14 15 20 25 25 28
80 81 82 82 82 83 85 85 86 87 88 85 80 39 13 8 12 11 8 7 6 5 7 8 7 6 7 9 8 9 11 9 8 8 8 7 10 12 12 16 17 20 23 25 28
81 81 82 83 83 83 85 87 86 85 80 79 81 26 9 8 10 11 8 7 6 5 7 8 7 6 7 7 8 9 9 9 8 8 8 7 13 11 13 15 18 22 23 26 30
80 81 83 84 85 87 87 88 84 80 80 77 42 18 9 25 10 9 8 7 6 6 8 8 7 6 6 6 5 6 8 9 7 8 7 7 10 11 13 17 19 26 27 30 35
82 84 86 87 87 88 87 85 77 78 63 29 21 17 8 6 6 9 8 6 5 6 8 9 7 6 5 5 6 6 5 5 7 7 8 7 8 7 11 15 20 25 30 33 37
84 85 86 87 88 87 56 27 26 27 20 9 9 6 6 8 8 9 8 7 7 6 9 8 7 6 5 6 7 7 6 6 6 6 9 8 9 8 10 11 18 25 35 34 36
82 85 87 87 88 86 46 13 12 12 12 6 6 7 7 8 9 8 6 8 8 9 8 9 7 6 6 6 6 6 7 7 6 7 8 8 8 7 8 12 15 22 34 32 35
83 85 87 88 86 50 14 12 10 10 11 6 6 5 6 8 8 8 7 7 9 9 8 8 8 7 7 6 7 6 7 7 8 8 6 8 10 9 8 12 17 18 24 29 35
84 85 86 92 49 10 13 13 9 11 12 8 6 5 4 7 8 7 6 8 10 10 8 8 6 7 7 7 7 8 7 8 8 9 9 8 9 12 9 12 17 18 21 24 34
84 84 87 89 29 10 14 9 10 12 15 7 6 5 4 6 6 8 7 9 12 10 11 9 8 9 8 7 7 9 9 8 9 9 9 8 8 9 10 9 12 13 20 21 31
84 84 86 37 25 10 8 10 13 15 13 8 6 6 6 6 6 7 10 9 9 10 10 9 7 8 7 7 8 8 10 9 9 8 10 9 9 8 10 14 11 15 19 23 28
84 87 75 27 12 9 9 12 14 13 6 7 7 5 6 6 6 11 12 14 13 17 15 10 9 7 8 9 8 9 10 12 13 12 12 12 10 11 9 10 12 14 19 23 25
85 91 63 22 14 13 13 15 22 8 7 7 6 6 6 5 6 9 12 13 11 10 10 12 11 8 8 9 9 10 11 11 20 13 17 12 13 15 11 10 14 16 18 22 24
90 28 18 15 14 13 15 16 13 9 6 7 8 8 7 5 6 10 11 11 10 10 15 10 10 7 8 6 7 10 12 7 11 10 10 9 9 9 10 11 14 17 19 22 23
37 16 14 17 15 13 15 20 9 6 7 8 10 8 10 8 8 10 11 8 9 8 9 10 14 8 8 7 7 9 8 12 10 20 20 12 15 13 17 15 18 19 20 22 24
35 17 18 11 12 12 12 11 9 7 7 8 8 10 9 8 8 8 9 8 7 8 8 8 12 10 9 10 9 11 11 11 8 12 20 24 24 15 14 14 18 19 20 22 26
22 16 14 12 12 10 10 9 29 7 7 6 9 9 9 9 10 9 8 8 6 6 9 8 10 14 10 7 6 7 11 12 13 20 14 14 19 12 11 13 13 17 20 27 30
24 15 13 13 12 9 9 9 9 7 7 6 7 9 10 12 14 9 9 7 6 8 10 10 13 15 15 8 8 10 8 10 13 17 24 22 17 13 14 14 16 18 22 33 34
28 17 14 12 11 19 13 15 12 7 7 7 7 9 11 12 13 13 9 8 7 7 54 27 14 17 11 18 14 14 10 9 12 16 15 12 14 17 15 15 24 22 26 36 42
22 22 23 14 13 14 14 13 11 13 11 11 11 10 10 14 13 14 9 8 7 30 15 15 23 16 13 8 8 9 9 9 11 12 15 15 30 36 21 20 22 25 37 40 44
31 26 15 18 26 19 30 19 14 10 14 13 13 9 8 14 13 14 11 12 12 10 12 15 24 20 16 10 8 9 8 8 9 10 12 12 21 58 20 23 20 29 38 42 44
22 23 28 35 20 20 17 16 16 13 16 16 13 11 15 15 13 17 18 22 21 22 19 22 22 23 23 12 10 15 11 9 9 10 11 14 15 16 17 26 27 29 36 39 39

GFSSW_sfc_rhum_024.txt.gz
RH
81 82 82 84 85 85 84 85 85 83 82 83 85 86 89 91 88 41 13 18 20 55 47 12 6 5 4 6 10 10 29 34 11 12 11 10 13 10 10 16 18 18 21 26 30
81 82 81 82 83 84 85 85 85 85 85 85 86 87 88 90 42 15 26 54 48 52 8 8 5 4 5 9 10 21 47 32 8 8 9 8 9 10 16 27 38 24 25 27 30
81 81 80 80 79 83 84 85 85 86 86 85 85 86 88 76 30 16 50 51 47 38 13 6 5 5 8 9 10 23 42 25 8 7 7 8 9 9 14 30 57 33 30 30 32
81 81 81 81 81 81 83 84 85 86 86 86 86 86 86 44 21 14 53 53 56 18 11 7 6 7 9 11 9 17 14 8 7 6 7 8 7 8 10 17 26 25 28 29 32
81 82 81 81 82 82 82 83 86 87 87 88 88 86 48 23 15 15 58 42 15 12 6 6 6 6 8 9 9 10 8 7 7 7 8 8 8 10 9 14 14 22 28 30 30
81 82 83 83 84 85 86 86 87 87 88 89 88 88 33 13 12 10 10 10 11 6 6 6 6 6 8 8 9 9 9 8 8 8 8 8 12 9 12 11 16 22 29 29 29
82 84 84 82 82 84 85 86 86 87 89 83 80 40 16 8 9 10 8 7 5 5 6 6 7 7 6 8 7 8 9 8 8 8 7 10 15 13 10 13 17 20 24 27 31
81 83 85 85 85 84 86 87 84 85 87 78 79 32 14 6 8 9 7 6 5 4 6 7 7 6 6 7 7 8 8 10 7 8 7 6 23 10 10 13 16 18 21 25 30
82 83 85 86 87 88 87 86 82 84 83 78 42 24 10 20 6 8 7 6 5 4 6 6 6 7 6 6 7 7 9 8 10 7 7 7 9 10 9 12 17 21 23 25 32
84 85 86 87 88 88 86 82 66 71 63 34 22 17 10 8 4 7 6 6 5 5 7 8 7 7 5 5 7 7 6 5 9 6 8 7 7 6 9 10 17 23 26 29 33
84 85 86 87 88 88 56 15 23 28 18 11 9 5 6 6 5 8 7 6 5 5 8 7 7 6 5 5 6 6 7 6 6 5 7 8 8 7 7 8 12 29 32 33 35
83 86 86 87 88 85 57 16 11 10 12 8 8 7 5 7 8 6 6 7 8 8 6 8 7 5 5 6 6 5 6 6 6 5 8 8 8 7 6 10 12 22 34 30 33
85 86 87 87 87 50 14 11 8 7 10 6 4 5 5 6 8 6 7 6 8 7 7 8 6 6 6 5 5 5 6 6 8 7 7 8 9 10 7 10 11 10 29 28 33
84 85 87 91 49 14 8 10 7 8 12 6 5 5 4 5 7 5 6 6 8 8 7 7 5 7 7 6 6 8 6 6 6 8 10 7 12 15 11 13 14 15 19 26 35
84 85 87 89 33 13 12 8 8 10 17 4 5 3 3 6 5 6 6 6 9 9 9 9 7 7 7 6 5 7 8 9 7 9 9 8 8 19 18 11 15 14 19 22 34
84 85 87 34 38 15 7 7 10 16 14 7 6 6 4 5 5 6 8 6 8 10 9 9 7 6 6 5 6 6 8 8 8 8 12 12 8 12 19 25 12 13 20 28 31
84 85 79 32 14 8 8 11 16 16 6 6 7 5 5 5 5 7 10 11 13 17 16 10 8 6 6 8 8 8 10 14 14 13 16 28 16 20 10 12 11 15 21 25 29
84 87 56 22 10 10 11 14 23 9 7 4 5 5 5 5 5 7 10 12 10 10 10 12 11 8 6 8 9 10 11 14 24 14 24 19 31 22 11 11 12 12 21 25 27
88 26 22 16 16 12 14 18 16 11 5 6 6 7 6 5 5 6 10 10 10 10 15 11 11 6 6 6 7 9 11 7 12 12 11 9 15 15 12 11 14 15 22 24 28
48 19 13 11 13 13 15 22 11 6 6 6 8 7 8 6 6 7 10 8 9 8 8 11 14 7 7 6 7 8 7 11 12 24 23 12 26 56 48 61 17 19 23 27 30
40 21 16 10 12 14 17 14 11 7 6 7 8 8 7 7 6 7 9 8 7 7 8 8 12 10 8 10 10 9 12 10 9 13 17 20 38 50 55 64 22 20 21 24 27
32 22 14 9 14 11 12 10 16 7 6 7 7 8 10 8 8 8 8 8 6 6 9 9 10 15 10 7 6 7 9 11 16 24 16 18 20 24 30 22 19 16 19 23 26
38 19 13 11 13 10 10 7 6 8 8 7 7 7 8 12 13 10 9 7 6 7 17 13 14 15 15 11 8 9 8 9 12 22 28 30 63 41 19 17 14 18 21 33 35
36 17 16 13 12 16 16 10 8 8 7 7 7 6 9 12 12 17 9 7 6 7 46 26 18 18 13 16 18 16 11 10 11 17 17 14 28 27 41 44 59 29 31 36 41
31 22 19 13 11 14 16 13 11 12 8 8 9 8 11 15 13 15 11 8 7 32 12 14 25 17 12 10 10 10 11 9 11 12 15 14 22 37 54 62 72 60 41 41 45
24 28 26 18 21 16 22 17 13 11 10 12 13 9 9 13 13 13 11 12 11 9 15 16 27 20 18 12 10 10 8 8 8 8 10 10 15 33 57 47 58 52 38 48 50
22 22 25 32 18 21 18 16 15 14 9 11 12 11 11 12 12 16 17 20 22 24 24 28 25 28 26 15 14 17 11 9 9 9 9 13 22 49 72 81 71 37 40 41 45

GFSSW_sfc_rhum_027.txt.gz
RH
81 82 84 86 86 86 86 86 86 86 86 87 88 90 91 91 91 62 25 22 25 48 47 8 11 11 7 8 7 27 53 63 40 29 20 17 24 20 18 22 26 30 36 39 39
82 83 83 83 85 86 86 86 87 87 88 89 90 90 91 91 56 29 34 53 50 51 5 11 11 6 8 7 19 37 43 34 24 14 12 11 22 21 22 23 27 40 38 36 38
82 83 82 81 81 84 86 86 86 87 88 89 90 90 91 87 45 20 56 57 51 44 8 13 11 8 10 11 22 25 27 17 17 11 8 11 18 21 27 34 33 44 42 40 42
82 82 82 81 82 81 83 84 86 87 89 90 91 92 89 62 30 14 53 55 52 29 14 14 9 11 12 13 18 24 17 15 10 9 10 11 10 21 25 29 25 36 37 40 44
82 82 82 82 82 82 82 83 86 88 89 91 91 92 66 40 25 22 55 47 24 16 17 11 10 10 12 11 14 15 16 14 9 11 10 11 14 15 23 24 24 32 35 40 44
82 82 83 82 82 85 86 86 86 87 88 91 89 91 56 27 14 14 17 14 14 15 8 8 10 9 11 11 14 13 11 10 10 10 14 14 18 17 22 24 28 33 38 38 42
82 82 83 82 82 83 85 86 85 85 88 89 84 50 29 16 12 12 18 12 12 8 7 8 9 11 10 11 10 11 14 11 11 11 13 13 18 16 19 26 31 35 36 37 44
82 82 82 83 84 84 87 86 83 81 86 89 83 51 34 11 14 12 13 10 8 7 6 9 10 11 12 9 9 11 13 17 15 12 11 13 22 18 17 22 31 32 35 38 54
82 82 84 85 87 88 89 85 80 78 82 86 68 52 26 17 9 10 11 10 8 7 7 6 10 12 11 13 14 13 15 14 19 12 13 11 20 17 14 18 28 30 36 42 47
83 85 87 88 88 89 89 80 69 71 63 43 31 33 21 12 7 6 10 8 9 7 8 10 13 15 14 15 16 13 15 12 23 16 12 11 11 16 17 20 29 35 41 45 45
84 86 87 88 88 89 82 34 42 45 37 26 20 12 8 9 7 8 9 11 8 9 12 12 15 16 12 9 9 8 9 10 13 8 10 14 13 12 12 15 33 39 48 47 45
82 86 87 88 88 87 88 32 17 14 18 11 10 13 9 8 10 8 9 12 11 13 11 12 15 10 8 10 8 8 9 10 9 10 11 13 12 11 13 15 35 39 48 46 51
84 86 87 87 88 78 28 16 12 11 20 11 7 7 9 8 10 9 9 11 11 12 12 13 12 8 9 8 7 8 10 10 13 10 9 13 18 17 13 18 37 37 41 44 53
85 86 87 92 59 28 20 14 10 11 29 12 8 6 6 7 8 6 7 10 10 11 11 11 8 8 11 10 8 11 10 9 9 12 19 16 23 20 22 22 22 41 43 49 51
85 86 87 88 67 29 17 9 11 18 40 8 6 5 5 6 7 7 7 9 11 10 13 14 10 10 12 8 7 10 10 13 13 14 18 16 21 20 24 31 41 38 37 49 55
85 86 86 60 67 35 17 11 17 31 32 9 7 6 6 6 6 6 9 8 8 11 13 12 9 11 9 6 7 8 11 14 17 18 26 25 25 30 27 38 48 34 29 46 51
84 85 86 49 32 19 14 19 32 34 10 8 10 7 7 7 6 7 12 14 17 25 27 18 12 10 8 11 10 14 19 31 34 32 34 25 27 43 21 28 30 32 46 44 51
84 88 76 45 21 19 24 32 45 15 11 7 8 8 9 7 7 7 14 18 14 17 23 27 23 11 8 11 16 17 18 31 35 33 30 27 29 34 25 23 32 33 39 43 57
87 54 45 33 36 26 33 38 29 20 9 8 7 10 10 7 7 8 13 16 14 14 25 25 22 10 8 9 11 16 20 16 22 25 26 24 37 33 39 35 29 38 53 50 55
76 43 29 20 21 25 36 38 19 10 8 8 13 11 19 8 7 9 14 12 12 11 14 17 25 11 9 10 13 16 16 19 29 43 44 30 47 47 56 49 45 35 41 47 53
67 46 20 15 21 34 32 23 15 10 10 11 12 13 14 13 10 10 10 10 9 10 11 15 24 20 16 18 16 18 18 26 20 25 30 36 39 44 52 56 60 49 48 47 49
50 49 23 16 34 31 27 21 22 9 8 11 11 12 16 16 21 12 11 16 8 8 14 15 22 29 20 15 11 13 16 25 39 32 38 38 46 38 51 54 70 71 69 44 44
58 44 23 20 29 22 20 11 9 9 9 14 12 11 11 19 29 24 14 9 9 16 26 24 27 29 22 19 16 21 17 18 22 37 31 40 51 41 47 50 58 80 86 58 48
58 50 36 33 22 24 29 26 18 8 8 10 11 12 14 20 22 25 19 9 9 14 46 33 31 37 26 31 24 26 18 17 26 34 33 30 47 49 52 43 42 53 72 66 63
53 47 40 34 24 20 25 24 21 15 12 14 18 13 15 28 26 23 22 16 12 32 17 25 33 32 23 16 14 15 15 14 21 25 28 20 42 54 56 38 48 44 71 73 65
51 42 36 37 37 23 35 23 20 16 16 14 21 13 16 29 26 37 35 41 40 22 21 25 38 31 30 20 17 18 15 15 13 12 15 37 54 68 69 57 54 59 66 69 72
44 36 42 46 35 34 29 26 17 18 19 14 13 22 23 33 28 26 25 30 38 42 45 33 40 36 36 26 25 32 22 24 25 23 26 24 52 55 64 70 71 59 43 63 71

GFSSW_sfc_rhum_030.txt.gz
RH
82 83 83 83 85 84 85 85 85 84 84 86 88 91 92 93 88 66 22 26 29 55 41 6 12 12 13 10 12 31 34 42 28 29 30 25 28 26 26 38 37 37 46 44 60
82 83 83 82 82 85 86 87 87 87 86 87 89 92 93 92 66 42 38 45 50 48 5 10 18 14 10 8 21 36 56 33 26 25 22 23 24 22 30 45 50 48 43 44 57
82 82 82 81 80 82 86 86 86 86 88 87 89 92 94 89 51 31 51 48 48 37 9 11 16 14 12 13 22 36 42 27 25 23 20 25 23 25 28 49 53 53 50 47 54
82 82 81 81 80 81 81 83 85 86 86 87 90 93 94 74 34 18 55 48 53 25 18 18 17 16 16 15 15 23 18 17 16 13 11 21 23 25 24 27 41 44 45 47 54
82 82 82 81 81 81 82 82 86 86 86 86 93 91 77 37 27 29 49 46 22 19 20 20 14 16 16 13 19 23 16 17 15 15 13 13 17 24 27 26 39 41 44 48 53
82 82 82 82 81 83 85 87 87 86 84 84 92 89 56 31 17 22 12 18 15 19 18 13 11 13 14 13 16 14 14 14 13 13 16 16 20 24 30 33 39 43 47 47 51
82 82 82 82 82 83 86 86 86 84 83 82 90 61 42 10 13 15 15 14 15 17 9 7 12 12 13 12 11 11 17 13 11 12 14 15 20 27 29 35 40 42 44 45 50
81 81 82 83 84 85 87 88 84 81 83 81 88 65 24 18 16 16 20 17 14 12 9 7 11 13 17 11 10 11 14 19 12 16 13 11 16 22 30 35 42 41 42 44 58
81 82 83 84 86 88 89 86 81 79 77 80 77 57 27 22 10 14 15 14 12 10 8 5 10 15 12 15 16 14 15 15 13 15 13 12 18 19 30 34 41 41 44 46 57
82 84 87 88 88 90 88 84 73 73 69 45 40 28 20 15 10 8 12 12 12 10 9 15 15 17 18 17 18 15 14 14 22 14 15 15 14 14 22 35 42 43 49 51 53
83 85 87 88 88 88 92 42 23 24 34 31 22 17 12 11 8 8 10 13 12 12 14 14 16 18 14 13 11 11 12 13 13 12 14 12 13 13 20 28 36 53 56 52 50
81 84 87 88 88 87 95 32 26 19 20 14 16 16 14 14 11 10 11 13 17 16 16 14 15 12 12 11 10 12 14 10 10 10 13 15 14 12 18 34 38 52 54 51 60
83 87 88 89 88 74 38 22 18 25 23 16 12 11 10 13 13 12 12 14 17 15 14 16 11 11 11 10 9 10 11 10 11 13 13 18 18 18 18 40 38 47 47 48 55
86 87 88 91 52 50 28 20 16 18 31 18 14 9 8 9 10 9 9 13 14 12 14 13 9 10 11 13 10 14 10 15 14 16 17 15 22 21 30 53 44 50 50 54 70
86 86 87 88 80 32 21 22 19 21 19 13 10 6 8 9 10 9 8 13 13 11 14 15 14 14 13 10 9 9 13 15 15 16 18 17 22 23 43 50 54 55 51 57 72
85 86 84 80 88 53 38 23 21 29 27 14 8 8 9 9 8 8 11 10 11 15 13 14 12 12 10 8 8 13 14 18 26 24 25 19 25 27 33 40 53 45 54 58 64
85 86 88 65 38 40 28 25 28 37 15 11 11 9 9 9 8 9 14 13 15 21 22 19 17 12 12 15 12 13 22 29 30 35 30 30 29 35 33 34 43 49 63 65 61
85 89 88 72 67 41 31 27 37 19 16 10 8 11 9 9 8 9 16 17 16 20 27 26 25 16 13 12 15 17 19 29 33 32 29 28 28 41 37 37 48 68 61 74 85
89 81 74 56 60 44 32 39 28 26 13 12 11 12 12 10 9 10 18 19 14 17 21 29 25 16 12 9 11 17 20 19 25 43 30 30 42 32 39 38 50 65 64 73 78
97 74 48 34 42 32 34 43 27 15 13 14 20 15 15 11 11 12 14 17 16 13 17 21 24 16 12 10 14 12 13 18 28 36 47 34 40 41 42 33 51 61 65 70 71
88 57 38 32 29 34 33 33 19 12 11 14 15 15 16 21 17 12 11 12 14 14 17 21 22 16 18 19 15 16 21 22 23 28 26 34 32 48 51 58 63 57 61 71 64
91 60 30 24 34 43 31 21 25 12 11 11 12 13 15 16 22 28 11 11 12 11 16 18 25 25 20 14 15 18 19 23 35 26 36 37 39 51 53 54 60 58 64 73 73
78 72 32 22 32 33 25 17 13 12 12 12 13 17 16 19 21 25 20 11 16 16 20 21 28 27 20 18 18 23 23 24 31 35 28 32 34 48 55 60 65 58 67 63 65
87 75 37 36 36 42 32 26 25 18 12 11 12 15 15 17 21 23 17 15 13 16 53 37 38 24 25 24 28 27 20 20 28 30 29 32 45 49 60 66 80 72 61 55 62
86 65 50 57 32 33 28 26 24 25 18 13 18 18 19 25 24 35 28 25 19 29 20 24 32 32 29 23 22 24 21 21 24 26 29 21 37 44 60 62 78 64 70 73 64
65 54 48 55 48 37 36 22 20 19 22 14 15 15 36 47 45 40 40 42 46 36 22 29 30 40 26 24 25 26 22 24 25 30 29 45 49 76 62 70 65 67 75 82 84
73 65 54 60 46 40 32 26 23 23 22 34 31 32 42 37 35 36 33 33 47 49 46 51 35 36 30 28 34 30 25 25 36 50 52 40 42 67 77 70 75 84 79 76 78

GFSSW_sfc_rhum_033.txt.gz
RH
82 82 83 83 82 83 84 84 84 83 83 84 88 91 94 95 91 72 16 22 30 52 47 6 16 15 14 11 14 33 36 38 30 30 30 32 35 32 34 43 43 44 52 54 58
82 82 82 81 80 82 84 85 86 85 84 86 88 93 94 95 72 44 36 49 44 45 5 14 16 17 12 9 19 27 42 30 28 26 25 25 29 32 43 49 57 56 66 68 74
82 82 82 80 80 81 84 86 86 86 86 85 87 93 94 93 52 30 63 49 50 34 11 13 17 16 14 15 30 40 34 30 26 27 24 26 27 28 47 56 59 63 79 76 77
82 82 82 81 81 81 81 82 85 86 85 84 86 93 93 79 36 20 60 54 48 23 20 20 16 13 14 13 16 31 22 22 22 20 25 22 26 26 32 35 46 51 69 74 78
82 82 81 81 82 82 82 83 85 86 85 84 86 94 70 34 24 34 58 45 24 20 20 19 16 18 18 15 15 23 19 18 17 18 15 20 26 28 28 46 45 48 55 72 73
82 82 81 81 82 82 84 85 87 86 84 82 85 92 53 19 18 24 14 17 15 20 21 18 14 14 17 15 18 14 12 14 14 15 17 18 24 25 40 45 47 50 54 58 66
81 81 81 81 81 82 84 86 86 85 83 81 83 68 46 8 15 17 16 15 16 18 16 9 13 14 18 15 14 12 17 14 14 17 18 19 30 31 38 45 50 50 51 53 59
82 82 81 82 83 83 85 87 84 82 83 81 86 73 35 15 17 16 22 18 18 17 14 9 12 13 17 14 12 12 15 17 12 16 13 13 19 32 42 47 53 50 50 52 63
82 82 82 84 86 87 88 87 82 77 76 80 82 68 27 25 17 17 19 17 14 13 12 6 11 16 14 16 16 16 14 14 12 13 16 15 16 30 41 45 52 51 53 53 60
82 84 86 87 88 89 88 87 73 78 69 55 44 23 17 15 13 13 18 16 16 12 10 12 18 19 20 17 17 16 15 13 17 16 18 15 13 37 38 43 48 49 54 54 59
82 85 87 88 88 88 93 37 23 23 30 23 20 14 15 13 12 9 12 14 14 12 16 14 17 19 15 16 14 14 15 14 11 11 16 18 17 16 38 42 48 53 60 61 59
82 85 87 89 88 89 92 29 28 26 24 15 18 21 17 16 18 12 11 16 18 18 19 16 16 13 15 14 15 15 12 10 10 12 15 17 14 20 33 40 44 50 64 59 66
83 86 89 89 88 65 38 28 24 36 29 18 15 13 11 15 16 15 12 14 16 19 17 18 13 12 13 14 13 10 12 12 14 12 13 16 17 20 20 41 42 55 56 54 60
84 86 89 92 47 54 32 27 29 24 28 15 17 11 10 11 13 12 12 14 18 16 16 16 13 12 12 13 11 17 10 15 18 18 17 16 21 20 45 65 64 60 58 58 62
85 85 87 87 82 40 22 37 28 18 14 10 12 8 12 12 12 11 11 13 17 14 15 16 18 15 15 11 9 11 13 19 20 19 22 20 21 22 48 68 69 64 55 58 67
86 86 85 84 86 60 49 34 22 24 20 14 9 10 12 13 11 11 12 13 14 17 17 15 14 14 14 11 10 14 15 21 30 26 26 22 24 28 49 54 57 62 63 72 79
86 87 90 71 26 49 38 23 22 30 14 12 13 12 13 12 12 11 15 17 18 19 23 18 18 16 11 16 14 15 22 29 25 34 30 35 33 31 37 43 58 81 79 79 68
87 91 88 80 78 48 29 26 24 13 19 14 12 12 11 11 12 11 17 20 18 20 24 28 25 19 16 14 14 20 18 28 32 32 31 30 35 36 45 42 73 66 68 57 57
89 86 87 69 74 48 28 32 23 23 17 15 14 16 15 10 11 11 15 17 16 18 19 31 26 18 15 12 12 22 23 20 28 40 32 33 38 33 64 76 67 59 56 61 72
94 82 54 51 52 32 29 36 26 22 14 16 20 18 23 15 11 12 16 16 17 15 16 21 24 19 14 14 14 13 15 19 28 34 46 32 36 44 68 77 67 73 72 71 72
88 54 40 50 31 30 30 31 24 16 13 18 20 17 16 23 14 14 12 12 15 17 17 25 24 20 18 20 16 18 22 27 26 31 28 34 30 41 52 63 64 66 71 79 74
82 49 38 30 29 52 33 29 28 14 13 12 17 16 16 18 25 29 13 10 14 17 20 21 26 28 20 20 18 17 20 24 28 34 42 37 32 44 48 51 57 59 77 79 81
68 78 49 25 37 35 30 20 18 15 12 13 15 17 16 18 27 25 23 14 17 16 20 22 28 30 24 20 20 22 24 30 33 34 35 32 30 53 58 59 59 67 79 74 80
78 63 44 38 39 31 35 26 23 20 16 12 12 16 17 23 24 27 19 16 17 31 60 35 33 24 25 23 27 24 24 23 26 34 34 31 28 57 56 63 69 62 65 77 70
83 70 56 56 39 38 33 29 26 24 22 18 21 19 18 30 32 40 37 33 24 46 28 26 35 36 29 22 20 24 26 25 28 29 31 30 36 42 61 69 70 64 69 76 71
60 55 51 57 58 51 48 30 23 19 24 23 22 33 39 45 41 43 42 43 46 35 28 31 34 31 30 27 25 25 23 27 32 45 38 49 60 79 75 72 73 74 79 83 83
81 72 55 60 57 48 42 33 30 29 24 38 39 43 40 38 37 39 46 38 56 60 50 52 34 30 26 39 28 24 33 40 58 74 73 42 54 75 74 70 77 77 77 77 78

GFSSW_sfc_rhum_036.txt.gz
RH
82 82 82 82 81 82 83 84 84 83 82 83 84 90 94 95 92 70 15 19 31 49 54 8 15 16 12 11 28 33 36 41 33 34 32 32 42 40 40 50 49 54 66 64 74
82 82 82 81 81 82 84 84 85 85 84 85 86 90 94 95 73 48 37 56 53 49 6 14 14 16 12 12 26 26 36 27 25 26 28 29 34 38 47 53 63 79 66 71 79
82 81 81 81 80 81 84 85 86 87 87 85 85 88 95 94 48 28 61 53 53 37 10 14 19 16 14 15 30 37 29 33 28 27 24 30 32 30 49 61 61 81 79 81 85
82 81 81 80 80 80 81 82 85 87 86 85 84 87 94 79 36 24 61 53 52 22 20 19 16 16 16 16 15 26 25 26 24 28 28 26 30 36 44 38 47 72 75 80 86
82 81 81 80 80 80 81 82 86 87 86 84 85 88 69 22 20 42 55 49 22 20 20 18 15 19 19 17 15 29 22 19 22 19 21 25 28 28 42 51 57 70 76 80 82
81 82 82 81 80 81 83 85 86 87 85 84 84 91 43 12 16 28 15 19 17 21 19 20 14 16 17 18 19 15 13 13 15 20 20 23 28 26 47 52 63 74 78 78 79
82 82 82 81 81 81 83 85 85 85 84 83 82 71 40 7 18 18 15 16 17 20 17 12 10 14 18 17 15 15 13 14 16 15 19 25 34 32 49 52 61 66 70 75 76
82 82 82 82 82 81 84 86 84 83 84 81 82 72 36 15 22 16 18 20 19 20 18 14 12 16 18 16 13 12 14 15 11 17 15 16 21 25 52 55 62 59 59 65 73
81 82 83 83 84 86 87 88 82 76 76 84 80 59 23 22 19 18 19 20 17 17 15 8 13 18 14 16 15 15 14 16 12 15 18 19 21 20 53 53 61 59 60 59 66
81 83 86 87 88 89 89 86 72 79 71 63 44 19 12 16 16 14 21 19 18 13 11 14 19 19 19 16 15 18 16 15 15 14 21 22 18 46 54 54 59 60 63 63 64
82 84 86 88 90 88 93 34 26 26 28 24 18 10 14 15 16 11 17 17 16 13 16 16 16 17 15 20 16 17 19 16 14 10 22 23 23 20 48 54 57 62 67 66 64
82 84 85 89 88 89 84 27 26 28 28 19 19 21 19 18 17 15 14 17 17 19 19 16 17 14 17 17 19 20 19 12 11 14 17 18 23 23 50 49 49 57 64 62 71
83 86 89 89 89 56 41 28 32 30 32 19 17 17 14 16 15 15 13 17 17 18 18 17 13 14 14 16 17 15 12 13 16 16 17 19 18 18 26 41 41 52 62 62 67
84 86 89 92 41 62 31 35 39 31 22 13 16 12 14 15 15 14 13 15 22 18 18 18 14 15 18 15 14 18 11 15 19 20 20 18 23 22 34 66 68 69 65 64 75
85 85 88 87 74 41 25 48 36 17 14 9 13 10 14 12 12 14 14 16 18 16 16 16 19 19 18 15 11 13 14 20 20 22 21 20 20 21 48 64 71 73 71 84 93
87 86 86 85 88 53 51 40 22 18 16 13 13 13 16 15 12 15 15 15 16 19 20 16 15 16 15 14 11 13 15 21 31 27 26 29 26 27 44 46 46 80 88 92 82
88 89 91 74 19 55 43 21 22 22 12 14 14 13 16 16 15 12 16 19 20 22 24 20 19 18 16 17 16 16 21 26 25 31 28 36 38 31 36 46 56 90 86 85 89
89 91 89 82 77 54 28 23 20 13 17 16 16 16 13 12 15 13 17 18 21 22 28 26 21 20 14 15 16 22 18 25 28 33 30 34 34 37 58 61 79 78 78 68 72
90 87 86 70 83 57 27 32 22 19 21 17 16 18 17 13 12 14 16 18 17 18 20 30 26 19 17 15 14 25 23 22 32 44 33 34 38 38 75 80 70 64 59 60 65
96 82 62 61 63 31 26 35 24 22 17 18 24 20 24 21 14 13 16 14 15 17 17 22 25 22 18 15 16 19 18 22 29 36 40 34 35 43 64 78 74 66 60 64 67
88 45 42 59 34 28 29 30 25 18 17 20 22 19 18 22 15 15 13 12 14 20 17 27 23 20 22 23 20 20 24 28 29 32 30 33 32 37 60 79 78 71 65 70 66
70 45 50 31 27 53 33 31 31 15 14 12 19 17 18 18 25 17 13 13 16 19 19 22 24 26 20 22 22 23 22 25 30 31 46 37 30 37 52 59 66 66 70 76 76
64 77 56 30 39 36 32 23 20 18 16 14 16 15 20 20 24 28 23 16 19 19 21 23 31 32 25 23 25 24 28 34 34 38 45 34 32 39 59 58 58 61 66 77 74
79 58 46 43 45 36 45 31 25 21 18 15 14 18 21 24 34 28 31 21 25 32 62 32 32 29 28 25 26 31 27 28 31 35 36 33 31 33 52 55 61 74 70 78 74
77 71 65 54 47 63 43 33 29 26 23 25 23 17 21 31 37 40 41 35 29 46 31 27 25 32 31 23 24 24 26 25 31 32 31 34 33 32 42 62 67 67 77 70 68
68 59 63 60 61 52 55 40 29 28 24 25 30 18 25 32 30 41 44 49 46 35 30 37 38 34 37 31 26 26 29 29 37 35 39 47 43 46 78 72 72 67 72 78 83
92 82 64 64 53 43 41 34 31 37 28 27 42 47 44 38 40 43 42 38 41 45 48 40 33 30 38 43 26 27 42 48 67 75 63 44 43 75 70 70 70 68 74 76 82

GFSSW_sfc_rhum_042.txt.gz
RH
80 80 80 80 80 81 82 83 83 83 84 85 87 88 88 90 90 36 6 14 21 54 52 6 7 8 16 10 10 13 15 16 14 16 13 14 18 20 19 27 26 30 28 28 44
81 80 80 79 79 82 84 85 85 85 85 86 88 88 89 90 34 11 35 53 54 48 5 7 8 8 10 6 9 11 14 14 12 12 12 14 16 20 24 25 31 36 37 38 43
81 81 80 79 78 80 83 83 84 84 86 87 88 88 89 72 20 10 62 58 53 26 5 7 8 7 7 7 10 12 13 12 11 11 11 12 16 17 20 24 21 30 38 40 42
81 81 80 80 79 79 81 82 83 85 86 87 86 88 88 33 11 15 55 57 48 12 9 8 8 7 8 10 8 12 11 12 9 10 12 14 14 18 18 18 18 25 32 36 40
81 80 80 80 80 80 79 82 85 85 86 86 86 88 37 9 13 18 53 34 9 8 8 8 7 7 9 9 9 11 10 8 8 9 10 12 15 17 18 16 22 27 32 34 35
81 81 81 81 81 84 84 85 85 87 86 85 86 90 14 7 9 13 7 6 7 7 7 6 7 8 8 8 9 8 8 8 8 9 11 12 11 15 15 18 28 31 31 31 33
81 81 81 81 81 83 85 85 86 86 86 85 83 40 11 5 8 10 7 6 8 7 7 6 6 7 8 9 7 7 9 8 7 7 8 10 14 15 12 22 28 29 30 30 34
81 81 82 82 83 83 86 87 84 84 86 78 77 26 7 7 8 10 8 7 8 8 8 7 6 6 7 8 7 9 9 10 6 5 7 10 12 9 15 22 27 28 30 31 36
81 82 83 86 87 88 88 88 84 76 75 75 34 15 5 16 7 7 8 7 7 7 7 6 6 6 6 8 10 10 11 10 8 6 7 12 11 11 14 20 24 29 32 31 34
82 84 86 88 89 89 89 85 67 65 50 32 22 14 5 7 8 8 8 9 8 7 6 7 6 6 7 8 12 11 11 9 10 6 6 8 10 9 16 19 23 28 34 33 33
82 85 87 88 89 89 54 14 13 14 13 8 7 7 4 7 8 8 8 9 8 7 7 8 6 6 8 8 8 9 10 10 8 6 8 10 11 10 16 19 24 30 36 35 35
82 84 86 89 90 88 43 11 16 16 11 7 8 9 8 8 8 8 8 8 8 8 8 7 6 6 7 8 8 9 10 10 7 8 8 8 9 10 16 21 21 23 34 33 36
84 87 89 89 88 45 16 15 13 14 12 7 7 6 6 7 6 7 7 7 8 8 7 6 5 6 7 8 8 9 10 8 8 9 7 8 10 11 12 23 28 24 24 31 39
85 86 89 92 45 14 14 16 13 14 10 6 6 6 7 7 6 6 6 8 8 8 7 6 4 7 7 7 7 8 6 7 7 8 9 9 9 15 15 21 29 28 26 28 34
85 86 88 91 28 11 16 12 12 13 10 5 5 6 6 6 6 8 6 8 9 9 8 6 6 6 8 6 6 8 6 7 8 8 9 10 8 11 14 17 24 33 30 36 44
86 87 88 49 27 12 13 12 15 12 10 7 7 6 7 6 6 9 8 8 8 10 9 8 8 8 6 9 8 9 9 10 8 6 9 13 9 11 11 21 22 33 39 42 43
89 90 75 34 11 15 13 13 12 11 6 7 7 6 5 6 6 8 10 11 10 15 14 8 8 6 8 10 9 9 9 10 11 9 11 14 11 12 12 21 27 28 40 42 45
90 91 72 32 25 21 14 14 19 9 7 7 7 7 8 6 6 7 9 10 8 9 8 10 9 8 8 10 9 9 8 9 18 11 11 16 12 15 18 27 33 34 42 46 46
92 30 26 21 26 25 15 16 12 10 9 9 7 8 8 7 6 7 8 8 8 9 12 10 8 7 9 8 9 12 11 8 12 12 9 10 13 10 18 27 37 40 45 47 48
30 27 21 25 28 16 15 19 12 9 10 9 9 9 10 9 8 8 8 6 7 7 8 11 13 7 10 9 10 10 9 11 10 19 18 13 15 12 13 21 33 37 40 44 43
35 20 21 18 17 14 14 11 12 9 10 10 11 10 10 10 9 8 8 7 6 6 7 8 13 12 12 12 10 12 11 11 10 13 13 15 13 12 16 21 28 34 36 36 30
23 18 19 19 14 13 13 14 32 8 7 7 8 9 10 10 11 10 8 7 6 6 9 9 11 13 9 10 10 10 12 12 13 23 12 16 13 10 17 23 31 32 33 32 36
26 21 18 19 12 13 15 11 11 8 8 7 7 8 10 11 16 12 12 8 8 7 9 10 13 16 14 12 13 13 11 12 16 18 21 14 14 13 16 22 33 36 39 40 37
31 21 16 14 16 17 18 15 13 9 8 7 8 8 9 10 12 16 13 11 13 9 49 25 13 18 10 13 11 18 15 13 13 15 17 12 15 14 22 24 30 38 40 38 43
27 29 30 16 15 21 23 21 15 12 10 12 11 9 10 14 12 14 14 15 16 36 17 13 21 15 11 10 10 12 12 13 16 13 15 13 13 22 30 35 30 35 40 41 43
29 29 24 27 32 27 36 24 21 17 16 12 14 10 11 15 14 20 16 20 16 18 18 16 21 15 12 8 9 12 12 13 13 14 13 12 15 27 32 35 35 37 40 42 43
32 33 31 44 27 23 22 24 23 21 17 12 13 15 18 16 11 17 18 21 26 25 23 24 18 25 16 12 12 15 13 13 13 13 12 16 28 28 34 40 40 40 37 39 42

GFSSW_sfc_rhum_045.txt.gz
RH
80 80 80 81 82 83 83 84 84 84 84 85 86 88 89 89 86 32 9 16 19 53 44 10 8 14 11 14 11 8 43 42 11 13 12 11 11 12 13 15 19 19 21 26 32
80 80 80 79 81 83 84 84 84 84 84 86 87 88 88 89 28 10 31 53 55 46 8 5 6 7 7 9 7 10 38 19 8 9 9 10 12 13 15 15 23 26 24 29 31
80 80 80 79 78 82 83 83 84 84 85 86 87 88 89 70 20 9 58 51 46 37 4 4 5 6 8 7 8 10 18 8 8 8 8 9 11 11 13 15 16 24 29 29 31
80 80 80 80 79 80 82 83 84 85 86 87 87 88 86 26 15 13 50 45 48 10 5 5 5 7 8 8 8 10 10 8 7 7 8 9 9 11 12 13 13 20 24 27 30
80 81 80 81 80 81 81 84 85 85 87 88 87 88 25 12 11 14 45 34 8 6 5 5 6 7 8 8 8 10 9 8 7 7 7 8 9 11 11 13 14 19 23 26 27
80 81 81 82 83 85 86 86 86 87 87 86 87 90 19 8 8 8 5 5 5 5 4 5 6 6 7 8 9 8 8 7 6 7 7 8 8 9 10 12 18 21 22 23 25
81 82 83 82 83 85 86 86 86 86 86 85 84 30 9 5 5 7 5 4 5 5 5 5 5 6 7 9 8 8 9 7 7 6 6 7 8 10 8 12 20 22 21 23 26
81 82 84 84 85 86 87 87 85 83 86 82 74 20 8 4 4 6 6 5 5 5 5 6 5 5 6 7 8 9 8 8 7 6 5 6 16 27 9 13 18 21 21 23 27
82 83 86 87 88 88 88 87 82 79 76 74 30 15 6 13 4 3 5 5 4 5 5 5 5 5 6 8 10 8 12 20 7 5 5 7 9 10 7 12 15 21 23 24 28
84 86 87 88 88 89 87 84 66 64 51 21 14 10 5 3 4 5 4 6 6 5 5 5 4 6 7 7 11 10 9 12 9 6 5 6 7 6 9 10 13 18 24 25 27
84 86 88 88 89 88 54 10 13 18 11 6 6 4 4 4 5 5 5 5 5 6 6 5 5 6 6 7 7 7 9 9 8 6 6 7 8 8 10 9 12 17 24 27 26
83 87 88 88 89 87 48 9 11 11 10 4 4 4 4 5 6 5 5 6 6 7 5 6 6 4 4 6 7 8 9 9 7 6 6 6 7 8 9 11 10 11 20 24 26
84 87 88 89 88 50 11 11 9 9 9 4 4 4 3 3 4 4 5 6 6 6 5 6 4 4 5 6 8 7 8 9 8 7 6 6 8 10 10 12 14 15 16 23 26
86 88 89 93 46 8 10 11 8 9 9 6 4 4 4 4 4 3 4 5 6 6 5 5 3 5 5 5 6 9 6 6 6 7 8 8 9 13 12 13 15 18 18 22 27
87 87 89 92 22 8 12 8 8 10 13 4 4 4 3 4 4 4 4 5 7 6 6 6 4 4 5 5 4 6 6 6 6 7 8 7 8 11 11 14 14 20 23 25 33
88 88 88 38 24 8 7 8 11 12 12 5 4 4 4 4 3 5 5 5 5 7 6 5 5 4 4 4 5 4 7 7 7 6 9 9 8 8 11 15 12 22 30 33 36
89 90 75 24 11 8 8 10 12 12 6 5 5 4 4 4 4 6 7 8 8 12 12 7 5 4 4 7 7 6 8 11 12 9 9 10 9 9 10 14 16 24 33 34 38
90 92 62 16 12 11 12 12 19 8 6 5 5 4 5 4 4 4 6 7 7 6 6 8 8 5 5 6 8 7 7 9 17 11 10 11 11 10 11 15 18 25 33 37 38
92 27 16 13 12 13 14 14 13 9 6 5 5 6 5 4 4 5 6 6 6 6 10 8 8 4 5 5 6 9 9 6 10 10 10 8 10 10 10 16 19 25 34 37 39
30 12 12 13 14 11 13 19 9 7 7 7 9 6 7 6 6 6 7 5 6 5 6 8 12 5 5 6 7 8 8 9 8 17 17 11 13 13 15 17 20 25 30 38 39
30 15 14 10 10 10 13 12 8 7 7 7 7 7 7 8 6 6 6 5 4 4 6 6 10 8 7 10 9 8 9 10 7 10 13 21 17 12 14 16 19 22 30 33 28
16 14 12 10 10 9 12 11 30 8 6 6 7 8 8 8 9 8 7 6 4 4 6 6 8 11 10 7 6 6 10 9 11 18 12 11 19 8 13 16 18 24 29 25 25
20 14 11 10 10 9 10 11 10 8 7 6 6 6 8 10 13 9 8 6 5 5 7 7 10 13 12 8 8 10 9 10 11 15 21 15 16 10 14 18 20 25 28 34 33
23 15 12 10 9 14 12 13 11 8 7 6 7 6 8 10 10 13 9 8 6 6 46 21 12 15 10 12 8 13 9 8 10 14 14 12 18 26 20 21 27 32 35 36 35
18 17 20 12 10 12 14 13 12 12 8 7 9 8 9 13 11 11 9 9 10 30 12 10 19 13 10 8 8 9 10 9 10 12 13 30 24 46 24 24 23 30 36 34 36
27 20 14 16 22 16 29 18 16 12 12 12 12 8 8 12 13 14 13 12 13 11 14 11 18 15 12 8 7 10 9 10 8 9 10 11 28 51 34 26 28 32 34 36 37
20 21 22 32 19 17 14 16 16 14 14 12 10 9 10 11 11 10 10 15 17 22 19 18 18 19 18 10 9 12 10 10 11 10 11 14 24 24 27 32 33 34 31 32 33

GFSSW_sfc_rhum_048.txt.gz
RH
80 80 80 82 83 84 83 84 84 84 84 85 86 88 89 89 84 36 10 18 22 75 53 16 15 10 12 10 10 12 27 24 17 26 22 24 26 12 12 15 15 15 20 26 30
80 80 80 82 83 84 84 85 85 84 85 86 87 88 89 90 28 13 30 62 61 57 10 6 6 6 8 8 8 15 32 23 14 8 11 20 23 23 31 24 22 22 24 28 30
81 81 81 80 80 83 84 85 85 85 86 86 87 88 89 74 21 9 56 60 50 42 8 4 4 5 8 8 7 20 23 15 13 7 7 13 22 24 27 30 23 25 29 30 32
81 81 80 80 80 80 83 84 85 86 86 87 88 89 89 30 18 10 63 60 59 15 5 4 5 6 8 9 7 12 14 9 7 7 7 8 10 21 17 18 18 21 26 28 31
81 81 81 82 82 82 82 84 85 86 86 88 88 89 23 15 10 11 62 45 8 7 7 6 6 6 8 8 7 8 10 8 6 6 6 7 8 10 18 14 13 20 24 26 28
81 82 84 83 84 85 86 86 85 86 86 87 87 91 22 10 7 6 5 5 6 6 5 5 6 5 7 8 8 8 8 7 6 6 6 7 7 8 10 12 14 20 23 24 26
82 84 85 84 84 86 86 86 85 85 86 84 86 34 10 6 3 6 5 4 4 4 5 4 4 6 6 8 7 8 9 8 7 6 6 6 11 12 17 24 17 19 21 23 26
83 84 86 86 87 87 87 85 84 83 84 83 82 24 10 4 3 4 6 5 3 4 4 5 5 6 6 6 7 8 8 14 16 15 5 5 16 14 14 31 24 18 20 22 26
85 86 87 88 88 88 87 84 81 77 78 76 36 19 9 15 3 2 4 5 4 4 4 4 5 6 6 8 9 9 11 17 13 11 5 5 14 13 13 18 13 17 21 21 26
86 86 87 88 88 88 88 80 59 59 45 24 16 12 6 4 2 4 4 4 5 5 5 5 4 5 6 7 12 16 26 19 26 12 5 5 7 8 9 9 10 15 22 23 25
85 87 88 88 89 88 53 14 13 20 12 8 7 5 4 3 4 4 3 4 4 5 7 5 5 6 6 7 7 8 20 28 26 17 6 6 7 7 8 7 10 13 25 26 26
85 87 88 89 89 85 57 17 10 8 10 6 5 4 4 4 5 4 3 6 6 6 5 6 6 5 4 5 6 7 9 14 12 7 6 6 7 6 7 8 8 8 19 23 56
87 88 89 90 88 50 13 9 7 6 9 5 3 3 3 3 4 3 4 5 6 6 5 6 5 4 4 5 6 8 9 8 8 7 6 7 8 9 9 9 11 12 14 22 67
88 89 90 94 49 12 6 9 6 7 10 6 3 3 3 2 4 3 3 5 5 6 5 5 4 4 4 5 4 7 5 6 6 8 8 8 12 15 11 12 14 16 16 24 47
88 89 90 91 29 10 10 6 6 8 14 4 3 2 2 4 3 3 3 4 6 6 5 6 4 4 5 4 4 6 5 6 6 7 8 7 8 20 14 22 18 20 23 32 41
88 90 90 35 37 12 6 6 8 12 14 5 4 4 4 3 3 3 3 4 5 6 6 5 4 4 3 3 4 4 5 7 7 7 11 10 8 19 17 22 22 27 30 34 36
88 90 81 30 13 7 6 8 13 13 6 5 4 4 4 4 4 4 6 7 7 11 11 7 5 4 4 4 4 5 7 12 14 11 11 9 8 18 15 14 20 32 33 36 40
88 90 54 20 8 8 10 12 20 8 7 4 4 3 4 4 4 4 6 8 6 6 7 9 9 4 4 5 6 8 7 11 22 15 23 20 22 16 15 14 22 28 32 38 40
90 25 21 15 12 10 13 16 14 10 5 5 4 5 5 4 4 4 5 6 6 6 11 9 8 4 4 4 5 8 9 5 10 9 12 20 24 13 12 16 22 30 35 37 39
49 17 12 9 9 11 14 22 9 6 5 6 8 6 7 5 5 5 6 5 5 5 5 8 11 6 4 4 5 6 7 10 8 23 22 11 22 28 24 21 25 29 33 36 39
36 19 13 8 9 12 15 12 9 6 6 7 8 8 7 6 5 6 6 4 4 4 5 6 9 9 6 7 8 8 9 11 8 11 25 26 46 33 59 43 22 24 30 34 34
22 19 11 7 11 10 13 12 18 7 6 7 7 7 9 7 8 8 6 5 4 4 6 6 7 12 9 5 6 7 8 9 12 23 15 17 21 16 27 17 20 25 30 29 25
29 14 11 7 10 8 9 9 9 9 8 8 7 6 7 9 13 9 8 5 4 4 9 8 10 12 12 8 8 9 7 8 12 19 24 31 21 19 22 25 23 26 29 31 32
32 18 12 10 9 12 14 11 12 9 9 7 7 6 7 8 10 12 10 6 6 5 36 21 13 19 10 14 9 13 9 8 12 18 16 18 36 42 38 45 53 30 35 36 36
26 21 18 13 9 10 12 12 11 12 8 8 10 7 8 12 11 11 9 9 7 24 11 12 25 14 10 8 8 9 10 9 10 10 13 21 37 41 48 42 45 34 35 36 36
29 23 22 16 18 13 20 15 14 11 11 11 12 8 8 12 12 13 9 11 13 10 12 11 24 18 14 9 8 9 12 35 15 8 9 11 38 45 41 33 30 38 40 38 39
18 16 21 28 16 17 15 15 13 12 11 11 11 11 11 9 8 7 8 12 16 21 27 23 20 27 22 11 10 14 9 9 9 9 9 16 28 38 42 41 39 44 35 35 34